Minneapolis-St Paul International,Wold-Chamberlain Airport Minneapolis US
ICAO: KMSP
IATA: MSP
Category: Large
Scheduled Services: Yes

Elevation: 841 ft
TransAlt. 18000 ft.

Airport Communications:
APP:118.72
ATIS:120.8
CLNC DEL:133.2
DEP:132.975
GND:121.8
934 AW BASE OPS:28.267
133 AW COMD POST:31.12
934 AW COMD POST:25.21
PTD:28.267
PRINCETON RDO:122.3
TWR:123.675
UNICOM:122.95

KMSP Zoom In..

Runways:

(A) RW 04 length 11006 ft width 150 ft
ILS 109.30 / hdg 45

(B) RW 12L length 8200 ft width 150 ft
ILS 110.70 / hdg 121

(C) RW 12R length 10000 ft width 200 ft
ILS 110.30 / hdg 121

(D) RW 17 length 8000 ft width 150 ft
LOC 110.95 / hdg 170

(E) RW 22 length 11006 ft width 150 ft
LOC 110.95 / hdg 225

(F) RW 30L length 10000 ft width 200 ft
ILS 110.30 / hdg 301

(G) RW 30R length 8200 ft width 150 ft
ILS 110.70 / hdg 301

(H) RW 35 length 8000 ft width 150 ft
ILS 110.95 / hdg 350

Location; KMSP
Day. 06 / Time. 05.53 Zulu
* Altimeter: 30.05
* Temperature: 18° c. 64.4°f.
* Wind from: 130° Speed 06 kn.
Dewpoint: 15° c.
Visibility: 10 Statute Miles.
Clouds: Few 25000 ft.

KMSP 060553Z 13006KT 10SM FEW250 18/15 A3005 RMK AO2 SLP173 T01830150 10228 20183 402560156 50003

Going to: --> -->


Wind From 130°
Speed 06 kn.

 
 
jpsmedia worldairports.se 2020   terms of use